TimeCDT,TemperatureF,Dew PointF,Humidity,Sea Level PressureIn,VisibilityMPH,Wind Direction,Wind SpeedMPH,Gust SpeedMPH,PrecipitationIn,Events,Conditions,WindDirDegrees,DateUTC
12:54 AM,71.1,64.0,78,30.17,10.0,East,5.8,-,N/A,,Clear,100,2013-08-25 05:54:00
1:54 AM,72.0,64.0,76,30.17,10.0,ESE,4.6,-,N/A,,Clear,120,2013-08-25 06:54:00
2:54 AM,70.0,64.9,84,30.17,10.0,SE,4.6,-,N/A,,Clear,140,2013-08-25 07:54:00
3:54 AM,66.9,64.0,90,30.19,10.0,East,5.8,-,N/A,,Clear,100,2013-08-25 08:54:00
4:54 AM,68.0,64.9,90,30.20,10.0,SE,6.9,-,N/A,,Clear,140,2013-08-25 09:54:00
5:54 AM,66.9,64.0,90,30.22,8.0,SSE,5.8,-,N/A,,Clear,150,2013-08-25 10:54:00
6:54 AM,66.9,64.0,90,30.24,6.0,SE,6.9,-,N/A,,Clear,140,2013-08-25 11:54:00
7:54 AM,70.0,66.9,90,30.25,7.0,SSE,5.8,-,N/A,,Clear,150,2013-08-25 12:54:00
8:54 AM,75.0,68.0,79,30.24,10.0,SSE,6.9,-,N/A,,Clear,160,2013-08-25 13:54:00
9:54 AM,79.0,68.0,69,30.24,10.0,South,9.2,-,N/A,,Clear,170,2013-08-25 14:54:00
10:54 AM,82.9,69.1,63,30.24,10.0,SSE,5.8,-,N/A,,Clear,150,2013-08-25 15:54:00
11:54 AM,86.0,66.9,53,30.22,10.0,South,5.8,-,N/A,,Clear,180,2013-08-25 16:54:00
12:54 PM,88.0,64.0,45,30.19,10.0,South,4.6,-,N/A,,Clear,190,2013-08-25 17:54:00
1:54 PM,91.0,57.9,33,30.19,10.0,SE,9.2,-,N/A,,Clear,140,2013-08-25 18:54:00
2:54 PM,91.0,61.0,36,30.17,10.0,Variable,5.8,-,N/A,,Clear,0,2013-08-25 19:54:00
3:54 PM,91.9,59.0,33,30.15,10.0,SW,6.9,-,N/A,,Clear,230,2013-08-25 20:54:00
4:54 PM,91.0,61.0,36,30.14,10.0,South,5.8,-,N/A,,Clear,180,2013-08-25 21:54:00
5:54 PM,89.1,62.1,40,30.15,10.0,SSW,9.2,-,N/A,,Clear,200,2013-08-25 22:54:00
6:54 PM,86.0,64.0,48,30.15,10.0,South,6.9,-,N/A,,Clear,180,2013-08-25 23:54:00
7:54 PM,79.0,64.9,62,30.16,10.0,South,5.8,-,N/A,,Clear,180,2013-08-26 00:54:00
8:54 PM,78.1,64.0,62,30.17,10.0,South,4.6,-,N/A,,Clear,170,2013-08-26 01:54:00
9:54 PM,75.9,64.0,67,30.17,10.0,South,4.6,-,N/A,,Clear,170,2013-08-26 02:54:00
10:54 PM,75.9,64.0,67,30.18,10.0,SSE,5.8,-,N/A,,Clear,160,2013-08-26 03:54:00
11:54 PM,73.0,64.0,73,30.18,10.0,SSE,8.1,-,N/A,,Clear,160,2013-08-26 04:54:00